Flag for US Virgin Islands Weather past 2 weeks in Cruz Bay, US Virgin Islands

Now
77 °F

Clear.


Feels Like: 79 °F
Forecast: 78 / 84 °F
Wind: No wind

Location: Cyril E. King International Airport

Current Time: May 26, 2015 at 4:31:18 AM

Latest Report: May 26, 2015 at 3:53 AM


Visibility: 10 mi

Pressure: 30.00 "Hg

Humidity: 82%

Dew point: 71 °F

Location of Cruz BayLocation

Historic Weather in Cruz Bay — Graph

°F

Cruz Bay temperature yesterday

Maximum temperature yesterday: 88 °F (at 3:00 PM)
Minimum temperature yesterday: 76 °F (at 5:53 PM)
Average temperature yesterday: 81 °F

Past Weeks' High & Low Weather Summary

 TemperatureHumidityPressure
High90 °F (May 12, 1:53 PM)100% (May 16, 1:21 PM)30.14 "Hg (May 16, 1:21 PM)
Low73 °F (May 17, 3:53 AM)50% (May 13, 1:53 PM)29.95 "Hg (May 20, 4:53 PM)
Average81 °F75%30.05 "Hg
* Reported May 11 2:53 AM — May 26 2:53 AM, Cruz Bay, Weather by CustomWeather, © 2015

Note: Actual official high and low records may vary slightly from our data, if they occured in-between our weather recording intervals... More about our weather records

Advertising

Cruz Bay weather history for previous 24 hours

 ConditionsComfort  
Time TempWeatherWind HumidityBarometerVisibility
2:53 AM
Tue, May 26
77 °FClear.6 mph82%29.99 "Hg10 mi
1:53 AM77 °FClear.3 mph85%30.00 "Hg10 mi
12:53 AM78 °FClear.6 mph82%30.02 "Hg10 mi
11:53 PM
Mon, May 25
79 °FPassing clouds.9 mph79%30.04 "Hg10 mi
10:53 PM78 °FPassing clouds.8 mph82%30.06 "Hg10 mi
9:53 PM79 °FPassing clouds.8 mph79%30.06 "Hg10 mi
8:53 PM78 °FPassing clouds.6 mph84%30.05 "Hg10 mi
7:53 PM79 °FMostly cloudy.6 mph84%30.04 "Hg10 mi
6:53 PM79 °FOvercast.7 mph82%30.03 "Hg10 mi
6:10 PM78 °FBroken clouds.8 mph84%30.03 "Hg10 mi
5:53 PM76 °FHeavy rain. Mostly cloudy.8 mph80%30.04 "Hg1 mi
5:06 PM86 °FMostly cloudy.12 mph63%30.01 "Hg10 mi
4:53 PM85 °FMore clouds than sun.8 mph65%30.01 "Hg10 mi
3:53 PM85 °FMostly cloudy.12 mph65%30.01 "Hg10 mi
3:20 PM85 °FMore clouds than sun.14 mph59%30.02 "Hg10 mi
3:00 PM88 °FMostly cloudy.8 mph54%30.02 "Hg10 mi
1:53 PM86 °FMostly cloudy.13 mph61%30.03 "Hg10 mi
1:34 PM85 °FCloudy.13 mph65%30.03 "Hg10 mi
1:03 PM84 °FMostly cloudy.13 mph72%30.05 "Hg10 mi
11:53 AM84 °FCloudy.16 mph67%30.06 "Hg10 mi
10:53 AM84 °FCloudy.16 mph70%30.06 "Hg10 mi
9:53 AM84 °FPartly sunny.12 mph67%30.07 "Hg10 mi
9:38 AM84 °FMore clouds than sun.12 mph65%30.07 "Hg10 mi
8:53 AM86 °FMostly cloudy.14 mph61%30.07 "Hg10 mi
7:53 AM84 °FMostly cloudy.13 mph65%30.06 "Hg10 mi
6:53 AM80 °FOvercast.6 mph74%30.05 "Hg10 mi
5:53 AM78 °FOvercast.9 mph79%30.04 "Hg10 mi
4:53 AM78 °FOvercast.8 mph76%30.03 "Hg10 mi
Weather by CustomWeather, © 2015

See weather overviewHow to use our weather pages